Regional Weather Roundup
Issued by NWS

Home | Current Version | Previous Version | Graphics & Text | Print | Product List | Glossary On
Versions: 1 2 3 4 5 6 7 8 9 10 11 12 13 14 15 16 17 18 19 20 21 22 23 24 25 26 27 28 29 30 31 32 33 34 35 36 37 38 39 40 41 42 43 44 45 46 47 48 49 50
000
ASUS43 KMKX 281211
RWRWI

WISCONSIN REGIONAL WEATHER ROUNDUP
NATIONAL WEATHER SERVICE MILWAUKEE/SULLIVAN WI
600 AM CST SUN DEC 28 2014

NOTE: "FAIR" INDICATES FEW OR NO CLOUDS BELOW 12,000 FEET WITH NO
SIGNIFICANT WEATHER AND/OR OBSTRUCTIONS TO VISIBILITY.

WIZ001-002-006>008-014>016-023>028-281300-
NORTHWEST WISCONSIN

CITY           SKY/WX    TMP DP  RH WIND       PRES   REMARKS
SUPERIOR ARPT  CLOUDY    19  12  73 NW8       30.08R WCI   9
6HR MIN TEMP:  19; 6HR MAX TEMP:  21;

ASHLAND        CLOUDY    17  12  80 SW7       30.06R WCI   8
6HR MIN TEMP:  16; 6HR MAX TEMP:  18;

HAYWARD        LGT SNOW  16  12  84 SW5       30.04S FOG     WCI   9
6HR MIN TEMP:  10; 6HR MAX TEMP:  16; 6HR PCP: TRACE;

SIREN          FLURRIES  15  12  86 SW5       30.07S WCI   8
6HR MIN TEMP:  13; 6HR MAX TEMP:  16;

CUMBERLAND     FLURRIES  12   9  85 SW6       30.05S WCI   3
RICE LAKE      CLOUDY    13  10  87 CALM      30.08R
6HR MIN TEMP:  10; 6HR MAX TEMP:  14;

CHETEK         CLOUDY    12   9  87 CALM      30.07R
6HR MIN TEMP:   7; 6HR MAX TEMP:  13;

LADYSMITH      CLOUDY     7   4  88 CALM      30.07R
6HR MIN TEMP:   7; 6HR MAX TEMP:  11;

EAU CLAIRE     PTCLDY     8   5  87 SW5       30.09S WCI   0
6HR MIN TEMP:   8; 6HR MAX TEMP:  12;

MENOMONIE      PTCLDY     7   5  89 CALM      30.10R
6HR MIN TEMP:   6; 6HR MAX TEMP:  13;

NEW RICHMOND   CLOUDY    11   8  87 S3        30.09S
6HR MIN TEMP:  10; 6HR MAX TEMP:  13;

OSCEOLA        CLOUDY    11   9  90 SE3       30.12S
6HR MIN TEMP:   8; 6HR MAX TEMP:  14;

$$

WIZ003>005-009-010-017-018-281300-
NORTH CENTRAL WISCONSIN

CITY           SKY/WX    TMP DP  RH WIND       PRES   REMARKS
MANITOWISH WTR CLOUDY    12  10  91 W6        29.98R WCI   2
6HR MIN TEMP:   9; 6HR MAX TEMP:  14;

ARBOR VITAE    CLOUDY    14  11  89 W5        29.99R WCI   6
6HR MIN TEMP:  12; 6HR MAX TEMP:  17;

WOODRUFF       CLOUDY    14  11  89 W5        29.99R WCI   6
6HR MIN TEMP:  12; 6HR MAX TEMP:  17;

RHINELANDER    CLOUDY     8   5  87 SW6       30.00R WCI  -2
6HR MIN TEMP:   4; 6HR MAX TEMP:  12;

EAGLE RIVER    FLURRIES  11   8  85 CALM      29.98R
6HR MIN TEMP:   7; 6HR MAX TEMP:  14;

LAND O LAKES   FLURRIES  13  10  89 W7        29.97S WCI   3
6HR MIN TEMP:  12; 6HR MAX TEMP:  16;

PHILLIPS       CLOUDY     9   7  91 CALM      30.01S
6HR MIN TEMP:   5; 6HR MAX TEMP:  14;

TOMAHAWK       CLOUDY     7   4  88 CALM      30.02S
6HR MIN TEMP:   4; 6HR MAX TEMP:  14;

MEDFORD        LGT SNOW   9   7  92 W5        30.04R WCI   1
6HR MIN TEMP:   6; 6HR MAX TEMP:  13;

MERRILL        CLOUDY    10   7  91 CALM      30.04S
6HR MIN TEMP:   6; 6HR MAX TEMP:  12;

$$

WIZ029-030-035-036-043>047-281300-
CENTRAL WISCONSIN

CITY           SKY/WX    TMP DP  RH WIND       PRES   REMARKS
WAUSAU         CLOUDY    10   6  84 NW5       30.05R WCI   2
6HR MIN TEMP:   9; 6HR MAX TEMP:  15;

MOSINEE        CLOUDY     9   9 100 W7        30.07R WCI  -3
MARSHFIELD     CLOUDY    11   7  84 W6        30.07R WCI   1
6HR MIN TEMP:   8; 6HR MAX TEMP:  15;

STEVENS POINT  CLEAR     12   8  85 W3        30.08S
6HR MIN TEMP:  12; 6HR MAX TEMP:  18;

WAUPACA        CLEAR     18  13  82 SW5       30.10R WCI  11
6HR MIN TEMP:  18; 6HR MAX TEMP:  24;

WAUTOMA        FAIR      16  12  84 W6        30.12R WCI   8
6HR MIN TEMP:  16; 6HR MAX TEMP:  22;

WISC RAPIDS    CLEAR     13   8  81 NW6       30.11R WCI   4
6HR MIN TEMP:  13; 6HR MAX TEMP:  19;

CAMP DOUGLAS   CLEAR     12  12  99 SW1       30.11R
6HR MIN TEMP:  11; 6HR MAX TEMP:  17;

$$

WIZ011>013-019>022-031-037>040-048>050-281300-
NORTHEAST WISCONSIN

CITY           SKY/WX    TMP DP  RH WIND       PRES   REMARKS
ANTIGO         CLOUDY     7   5  91 W6        30.02S WCI  -3
6HR MIN TEMP:   4; 6HR MAX TEMP:  12;

SHAWANO        CLEAR     17  12  80 W7        30.09R WCI   8
6HR MIN TEMP:  17; 6HR MAX TEMP:  23;

OCONTO         CLEAR     18  14  84 W8        30.08R WCI   8
6HR MIN TEMP:  18; 6HR MAX TEMP:  24;

STURGEON BAY   CLEAR     19  12  73 W8        30.08R WCI   9
6HR MIN TEMP:  19; 6HR MAX TEMP:  27;

GREEN BAY      CLEAR     21  16  81 W9        30.09R WCI  11
6HR MIN TEMP:  21; 6HR MAX TEMP:  25;

MANITOWOC      CLEAR     22  19  89 W9        30.09R WCI  12
6HR MIN TEMP:  22; 6HR MAX TEMP:  27;

APPLETON       CLEAR     18  14  86 W9        30.08R WCI   6
CLINTONVILLE   CLEAR     18  12  79 W6        30.09R WCI   9
OSHKOSH        CLEAR     20  13  74 W8        30.09R WCI  10
6HR MIN TEMP:  20; 6HR MAX TEMP:  24;

$$

WIZ032>034-041-042-053>061-281300-
SOUTHWEST WISCONSIN

CITY           SKY/WX    TMP DP  RH WIND       PRES   REMARKS
LA CROSSE      CLEAR     14   8  77 S6        30.14S WCI   5
6HR MIN TEMP:  13; 6HR MAX TEMP:  16;

SPARTA         CLEAR     12   9  88 CALM      30.13S
6HR MIN TEMP:  11; 6HR MAX TEMP:  17;

VIROQUA        CLEAR     13  13 100 SW5       30.09S WCI   5
6HR MIN TEMP:  13; 6HR MAX TEMP:  16;

BOSCOBEL       CLEAR     16  12  84 SW3       30.16S
6HR MIN TEMP:  15; 6HR MAX TEMP:  19;

PRAIRIE DU CHI CLEAR     17  12  80 CALM      30.17R
6HR MIN TEMP:  17; 6HR MAX TEMP:  19;

PLATTEVILLE    CLEAR     16  13  91 CALM      30.15R
6HR MIN TEMP:  15; 6HR MAX TEMP:  20;

$$

WIZ056-057-062-063-064-067-068-281300-
SOUTH CENTRAL WISCONSIN

CITY           SKY/WX    TMP DP  RH WIND       PRES   REMARKS
REEDSBURG      CLEAR     16  11  82 SW6       30.12R WCI   7
6HR MIN TEMP:  15; 6HR MAX TEMP:  20;

BARABOO/DELLS  CLEAR     16  11  82 W3        30.11R
6HR MIN TEMP:  16; 6HR MAX TEMP:  21;

LONE ROCK      CLEAR     20  11  68 CALM      30.15S
6HR MIN TEMP:  20; 6HR MAX TEMP:  25;

MINERAL POINT  CLEAR     19  16  86 SW3       30.12S
MADISON        CLEAR     19  12  74 CALM      30.12S
6HR MIN TEMP:  18; 6HR MAX TEMP:  24;

MIDDLETON      CLEAR     19  12  76 CALM      30.13S
6HR MIN TEMP:  19; 6HR MAX TEMP:  24;

WATERTOWN      CLEAR     19  16  86 SW5       30.11S WCI  12
6HR MIN TEMP:  19; 6HR MAX TEMP:  27;

MONROE         CLEAR     18  16  93 W6        30.13R WCI   9
JANESVILLE     CLEAR     19  16  86 W6        30.14R WCI  11
$$

WIZ051-052-058>065-066-070>072-281300-
SOUTHEAST WISCONSIN

CITY           SKY/WX    TMP DP  RH WIND       PRES   REMARKS
MILWAUKEE      PTCLDY    24  17  74 W6        30.12R WCI  17
6HR MIN TEMP:  24; 6HR MAX TEMP:  30;

WAUKESHA       CLEAR     19  16  86 W5        30.12R WCI  13
MILWAUKEE/TIMM CLEAR     23  18  80 W7        30.11S WCI  15
RACINE         CLEAR     24  18  77 W7        30.14R WCI  16
6HR MIN TEMP:  24; 6HR MAX TEMP:  30;

BURLINGTON     CLEAR     19  17  89 SW6       30.14R WCI  11
6HR MIN TEMP:  19; 6HR MAX TEMP:  28;

KENOSHA        CLEAR     23  19  85 W8        30.13R WCI  14
6HR MIN TEMP:  23; 6HR MAX TEMP:  31;

FOND DU LAC    CLEAR     20  14  77 W6        30.10R WCI  12
6HR MIN TEMP:  20; 6HR MAX TEMP:  24;

SHEBOYGAN      CLEAR     22  16  78 W9        30.09R WCI  12
6HR MIN TEMP:  22; 6HR MAX TEMP:  28;

WEST BEND      CLEAR     21  14  73 W10       30.09S WCI  10
JUNEAU         CLEAR     19  15  84 W6        30.12R WCI  11
6HR MIN TEMP:  18; 6HR MAX TEMP:  25;

$$

LSZ147-162-281300-
LAKE SUPERIOR

STATION/POSITION TIME  TEMP    WIND        PRES    WAVE
                       AIR SEA DIR/SP/G            HT/PER
                 (UTC) (F)     (DEG/KT/KT) (MB)    (FT/S)
DEVILS ISLAND    1200   20     300/ 17/ 20 1018.8R
PORT WING        1140   22     300/ 15/ 18 1017.9R
SAXON HARBOR     1100   19     210/  5/  8 1016.9S
$$

LMZ867-665-643>646-281300-
LAKE MICHIGAN

STATION/POSITION TIME  TEMP    WIND        PRES    WAVE


USA.gov is the U.S. government's official web portal to all federal, state and local government web resources and services.